Voltar ao catálogo

INTELSAT 3R

PAS 3R

AtivoComunicaçõesGEO
NORAD 23764·PAYLOAD·🇺🇸 United States

Lançado Jan 12, 1996 de Guiana Space Centre

Loading…

TLE

AtualizadoSource: Space-Track

Época: Sep 14, 2026, 12:16 UTC

1 23764U 96002A   26257.51126198  .00000014  00000-0  00000-0 0  9999
2 23764  11.9112  36.0590 0010385 268.7560 270.1981  0.99087683111677

Acompanhe INTELSAT 3R em tempo real com AllMySat

Download on the App Store